Terminal Aerodrome Forecast
Issued by NWS Atlanta, GA

Home | Current Version | Previous Version | Text Only | Print | Product List | Glossary On
Versions: 1 2 3 4 5 6 7 8 9 10 11 12 13 14 15 16 17 18 19 20 21 22 23 24 25 26 27 28 29 30 31 32 33 34 35 36 37 38
000
FTUS42 KFFC 260956 AAB
TAFATL
TAF AMD
KATL 260956Z 2610/2712 VRB03KT P6SM FEW060 BKN120 BKN250
     FM261400 19004KT P6SM SCT025 SCT120
     FM261700 17006KT P6SM SCT035
     FM262000 16006KT P6SM SCT060
     FM270100 VRB03KT P6SM SCT080=

USA.gov is the U.S. government's official web portal to all federal, state and local government web resources and services.